Powrót do katalogu

STARLINK-35669

AktywnyŁącznośćVLEO
NORAD 66396·PAYLOAD·🇺🇸 United States

Wystrzelony Nov 8, 2025 z Cape Canaveral Space Force Station

Loading…

Następne Przeloty (najbliższe 24 godziny)

TLE

ŚwieżeSource: CelesTrak SupGP

Epoka: Sep 14, 2026, 21:09 UTC

1 66396C 25257S   26257.88173611  .00038200  00000+0  11291-2 0  2573
2 66396  53.1598  53.8293 0001293  81.7054 215.7034 15.34357387    12

Śledź STARLINK-35669 w czasie rzeczywistym z AllMySat

Download on the App Store